Location: Unspecified
(41.1637°N, 24.2901°E)
Time: 11:14:32
(UTC+02:00)

ISS - Pass Details

Date: 10 May 2026
Orbit: 414 x 424 km, 51.6° (Epoch: 12 May)

Event Time Altitude Azimuth Distance (km) Brightness Sun altitude
Rises 22:31:27 0° 286° (WNW) 2,349 0.7 -26.0°
Reaches altitude 10° 22:34:10 10° 310° (NW) 1,489 -0.1 -26.2°
Maximum altitude 22:36:17 16° 349° (N) 1,195 -0.7 -26.4°
Drops below altitude 10° 22:38:24 10° 29° (NNE) 1,493 -0.6 -26.6°
Enters shadow 22:39:11 - 38° (NE) 1,706 -0.4 -26.6°
